H1 CPF 2 NER 2024 9 19 9 263 01 glonass146 H2 2216101 9146 54377 2024 9 19 0 0 0 2024 9 22 23 45 0 900 1 1 0 0 0 1 H9 10 0 60572 0.00000 0 -5824520.561 -15428908.606 19486944.793 10 0 60572 900.00000 0 -3787030.504 -13986124.919 21016093.062 10 0 60572 1800.00000 0 -1507473.384 -12615870.320 22137992.314 10 0 60572 2700.00000 0 966956.242 -11367503.649 22830814.104 10 0 60572 3600.00000 0 3580179.451 -10281754.683 23081017.003 10 0 60572 4500.00000 0 6269313.071 -9389079.939 22883615.262 10 0 60572 5400.00000 0 8967040.911 -8708464.601 22242285.063 10 0 60572 6300.00000 0 11604179.542 -8246720.640 21169305.592 10 0 60572 7200.00000 0 14112333.663 -7998310.802 19685335.107 10 0 60572 8100.00000 0 16426531.896 -7945706.329 17819025.034 10 0 60572 9000.00000 0 18487734.171 -8060264.080 15606478.190 10 0 60572 9900.00000 0 20245106.431 -8303586.845 13090560.243 10 0 60572 10800.00000 0 21657967.660 -8629310.175 10320076.544 10 0 60572 11700.00000 0 22697327.302 -8985240.662 7348829.362 10 0 60572 12600.00000 0 23346947.997 -9315755.349 4234573.341 10 0 60572 13500.00000 0 23603888.297 -9564360.336 1037889.431 10 0 60572 14400.00000 0 23478501.945 -9676299.379 -2179000.414 10 0 60572 15300.00000 0 22993893.337 -9601100.720 -5353453.852 10 0 60572 16200.00000 0 22184852.093 -9294952.637 -8423639.154 10 0 60572 17100.00000 0 21096311.959 -8722805.363 -11329751.336 10 0 60572 18000.00000 0 19781399.748 -7860108.566 -14015188.326 10 0 60572 18900.00000 0 18299157.499 -6694109.229 -16427663.049 10 0 60572 19800.00000 0 16712034.997 -5224653.598 -18520228.791 10 0 60572 20700.00000 0 15083259.357 -3464458.181 -20252197.201 10 0 60572 21600.00000 0 13474193.329 -1438837.466 -21589930.797 10 0 60572 22500.00000 0 11941794.017 815100.846 -22507494.665 10 0 60572 23400.00000 0 10536279.039 3249759.709 -22987155.069 10 0 60572 24300.00000 0 9299097.860 5808801.351 -23019715.966 10 0 60572 25200.00000 0 8261292.710 8429267.709 -22604687.706 10 0 60572 26100.00000 0 7442316.717 11043984.298 -21750285.495 10 0 60572 27000.00000 0 6849357.335 13584147.487 -20473258.531 10 0 60572 27900.00000 0 6477191.753 15981987.754 -18798553.865 10 0 60572 28800.00000 0 6308578.540 18173398.436 -16758822.155 10 0 60572 29700.00000 0 6315167.276 20100421.215 -14393775.418 10 0 60572 30600.00000 0 6458886.294 21713485.662 -11749409.574 10 0 60572 31500.00000 0 6693748.680 22973310.513 -8877107.165 10 0 60572 32400.00000 0 6967999.357 23852388.586 -5832637.823 10 0 60572 33300.00000 0 7226511.894 24335994.641 -2675075.937 10 0 60572 34200.00000 0 7413333.455 24422675.379 534343.422 10 0 60572 35100.00000 0 7474270.251 24124202.400 3733408.205 10 0 60572 36000.00000 0 7359404.365 23464991.228 6860129.944 10 0 60572 36900.00000 0 7025435.862 22481011.664 9853938.166 10 0 60572 37800.00000 0 6437751.530 21218235.771 12656845.934 10 0 60572 38700.00000 0 5572133.136 19730688.768 15214564.563 10 0 60572 39600.00000 0 4416033.095 18078184.404 17477546.576 10 0 60572 40500.00000 0 2969363.493 16323839.169 19401937.562 10 0 60572 41400.00000 0 1244764.477 14531468.620 20950419.345 10 0 60572 42300.00000 0 -732660.472 12762973.735 22092928.930 10 0 60572 43200.00000 0 -2926132.948 11075825.466 22807239.968 10 0 60572 44100.00000 0 -5288480.780 9520751.480 23079395.904 10 0 60572 45000.00000 0 -7763860.662 8139720.791 22903986.519 10 0 60572 45900.00000 0 -10289852.760 6964309.722 22284262.233 10 0 60572 46800.00000 0 -12799842.256 6014516.999 21232083.313 10 0 60572 47700.00000 0 -15225590.590 5298077.422 19767703.979 10 0 60572 48600.00000 0 -17499890.874 4810302.934 17919394.345 10 0 60572 49500.00000 0 -19559197.887 4534458.084 15722906.092 10 0 60572 50400.00000 0 -21346123.445 4442654.566 13220790.886 10 0 60572 51300.00000 0 -22811692.895 4497227.577 10461583.487 10 0 60572 52200.00000 0 -23917267.940 4652536.273 7498864.466 10 0 60572 53100.00000 0 -24636054.364 4857112.273 4390220.203 10 0 60572 54000.00000 0 -24954130.521 5056065.015 1196120.308 10 0 60572 54900.00000 0 -24870952.393 5193641.365 -2021265.356 10 0 60572 55800.00000 0 -24399313.209 5215829.888 -5199286.134 10 0 60572 56700.00000 0 -23564758.879 5072897.952 -8276041.698 10 0 60572 57600.00000 0 -22404483.771 4721752.414 -11191599.496 10 0 60572 58500.00000 0 -20965753.675 4128022.141 -13889173.456 10 0 60572 59400.00000 0 -19303923.028 3267772.450 -16316239.728 10 0 60572 60300.00000 0 -17480130.760 2128777.437 -18425566.756 10 0 60572 61200.00000 0 -15558772.691 711295.141 -20176138.946 10 0 60572 62100.00000 0 -13604857.603 -971688.175 -21533955.657 10 0 60572 63000.00000 0 -11681358.695 -2894755.643 -22472690.094 10 0 60572 63900.00000 0 -9846671.861 -5020887.304 -22974195.650 10 0 60572 64800.00000 0 -8152287.214 -7302783.107 -23028850.556 10 0 60572 65700.00000 0 -6640770.777 -9684626.187 -22635734.934 10 0 60572 66600.00000 0 -5344139.844 -12104212.798 -21802637.686 10 0 60572 67500.00000 0 -4282698.527 -14495360.087 -20545893.947 10 0 60572 68400.00000 0 -3464380.488 -16790491.444 -18890056.996 10 0 60572 69300.00000 0 -2884624.434 -18923291.896 -16867411.651 10 0 60572 70200.00000 0 -2526785.529 -20831323.263 -14517339.087 10 0 60572 71100.00000 0 -2363063.477 -22458490.642 -11885545.764 10 0 60572 72000.00000 0 -2355906.454 -23757258.025 -9023171.696 10 0 60572 72900.00000 0 -2459830.275 -24690521.500 -5985795.536 10 0 60572 73800.00000 0 -2623574.939 -25233062.755 -2832355.853 10 0 60572 74700.00000 0 -2792506.751 -25372523.205 375990.444 10 0 60572 75600.00000 0 -2911164.156 -25109859.027 3577050.411 10 0 60572 76500.00000 0 -2925839.599 -24459259.033 6708795.415 10 0 60572 77400.00000 0 -2787088.407 -23447529.626 9710556.435 10 0 60572 78300.00000 0 -2452058.967 -22112973.129 12524191.627 10 0 60572 79200.00000 0 -1886546.037 -20503806.713 15095204.091 10 0 60572 80100.00000 0 -1066680.697 -18676187.971 17373788.890 10 0 60572 81000.00000 0 19814.384 -16691929.294 19315789.855 10 0 60572 81900.00000 0 1372857.702 -14615995.762 20883548.529 10 0 60572 82800.00000 0 2979762.814 -12513890.062 22046629.574 10 0 60572 83700.00000 0 4815525.055 -10449032.356 22782409.311 10 0 60572 84600.00000 0 6843630.854 -8480243.140 23076516.401 10 0 60572 85500.00000 0 9017357.861 -6659432.891 22923116.249 10 0 60573 0.00000 0 11281513.638 -5029593.964 22325033.463 10 0 60573 900.00000 0 13574543.851 -3623176.859 21293708.937 10 0 60573 1800.00000 0 15830921.058 -2460920.357 19848992.335 10 0 60573 2700.00000 0 17983720.224 -1551181.249 18018771.665 10 0 60573 3600.00000 0 19967271.791 -889794.010 15838446.441 10 0 60573 4500.00000 0 21719783.382 -460465.587 13350253.005 10 0 60573 5400.00000 0 23185820.509 -235689.091 10602453.900 10 0 60573 6300.00000 0 24318542.049 -178138.107 7648406.030 10 0 60573 7200.00000 0 25081595.967 -242482.780 4545525.195 10 0 60573 8100.00000 0 25450594.636 -377550.635 1354167.023 10 0 60573 9000.00000 0 25414106.581 -528740.023 -1863553.606 10 0 60573 9900.00000 0 24974121.794 -640582.972 -5044980.802 10 0 60573 10800.00000 0 24145970.222 -659347.453 -8128148.762 10 0 60573 11700.00000 0 22957696.277 -535567.188 -11053000.448 10 0 60573 12600.00000 0 21448915.631 -226390.066 -13762568.710 10 0 60573 13500.00000 0 19669202.656 302356.004 -16204095.615 10 0 60573 14400.00000 0 17676076.903 1074468.786 -18330067.197 10 0 60573 15300.00000 0 15532674.022 2102121.938 -20099142.763 10 0 60573 16200.00000 0 13305199.695 3385113.582 -21476960.373 10 0 60573 17100.00000 0 11060274.019 4910645.684 -22436802.910 10 0 60573 18000.00000 0 8862278.025 6653644.033 -22960112.149 10 0 60573 18900.00000 0 6770813.398 8577605.675 -23036841.505 10 0 60573 19800.00000 0 4838381.219 10635938.412 -22665641.402 10 0 60573 20700.00000 0 3108375.879 12773736.274 -21853874.553 10 0 60573 21600.00000 0 1613476.654 14929916.737 -20617461.693 10 0 60573 22500.00000 0 374502.466 17039630.399 -18980561.523 10 0 60573 23400.00000 0 -600224.265 19036842.562 -16975091.741 10 0 60573 24300.00000 0 -1314980.211 20856979.151 -14640100.942 10 0 60573 25200.00000 0 -1786208.064 22439526.826 -12021003.946 10 0 60573 26100.00000 0 -2041568.060 23730479.151 -9168695.658 10 0 60573 27000.00000 0 -2118515.824 24684527.222 -6138560.829 10 0 60573 27900.00000 0 -2062467.995 25266903.874 -2989399.003 10 0 60573 28800.00000 0 -1924634.081 25454805.113 217714.454 10 0 60573 29700.00000 0 -1759606.854 25238330.087 3420609.200 10 0 60573 30600.00000 0 -1622813.414 24620900.997 6557219.918 10 0 60573 31500.00000 0 -1567934.675 23619145.997 9566782.435 10 0 60573 32400.00000 0 -1644402.143 22262250.406 12391003.213 10 0 60573 33300.00000 0 -1895077.396 20590803.553 14975180.127 10 0 60573 34200.00000 0 -2354211.941 18655189.312 17269253.484 10 0 60573 35100.00000 0 -3045773.345 16513587.102 19228767.759 10 0 60573 36000.00000 0 -3982208.273 14229666.016 20815726.282 10 0 60573 36900.00000 0 -5163694.997 11870067.160 21999323.101 10 0 60573 37800.00000 0 -6577917.707 9501777.904 22756538.554 10 0 60573 38700.00000 0 -8200373.504 7189505.980 23072587.444 10 0 60573 39600.00000 0 -9995200.968 4993161.474 22941211.279 10 0 60573 40500.00000 0 -11916497.692 2965550.253 22364808.675 10 0 60573 41400.00000 0 -13910073.877 1150373.886 21354400.795 10 0 60573 42300.00000 0 -15915570.784 -419381.335 19929431.520 10 0 60573 43200.00000 0 -17868857.415 -1722599.522 18117405.027 10 0 60573 44100.00000 0 -19704606.719 -2750686.412 15953366.367 10 0 60573 45000.00000 0 -21358944.486 -3507689.398 13479233.767 10 0 60573 45900.00000 0 -22772060.422 -4009881.229 10742994.332 10 0 60573 46800.00000 0 -23890671.743 -4284824.811 7797777.768 10 0 60573 47700.00000 0 -24670235.192 -4369958.483 4700825.567 10 0 60573 48600.00000 0 -25076813.415 -4310761.774 1512375.554 10 0 60573 49500.00000 0 -25088515.915 -4158579.720 -1705516.174 10 0 60573 50400.00000 0 -24696452.521 -3968198.747 -4890192.186 10 0 60573 51300.00000 0 -23905158.030 -3795278.001 -7979624.739 10 0 60573 52200.00000 0 -22732469.172 -3693746.484 -10913635.609 10 0 60573 53100.00000 0 -21208858.493 -3713277.907 -13635079.588 10 0 60573 54000.00000 0 -19376253.031 -3896951.889 -16090967.330 10 0 60573 54900.00000 0 -17286387.617 -4279202.062 -18233504.706 10 0 60573 55800.00000 0 -14998762.459 -4884139.190 -20021027.671 10 0 60573 56700.00000 0 -12578291.275 -5724321.226 -21418814.160 10 0 60573 57600.00000 0 -10092739.114 -6800022.940 -22399757.302 10 0 60573 58500.00000 0 -7610057.503 -8099036.359 -22944887.189 10 0 60573 59400.00000 0 -5195728.469 -9597010.641 -23043731.751 10 0 60573 60300.00000 0 -2910228.076 -11258317.136 -22694510.502 10 0 60573 61200.00000 0 -806714.680 -13037403.256 -21904158.275 10 0 60573 62100.00000 0 1070962.768 -14880578.275 -20688179.322 10 0 60573 63000.00000 0 2689854.816 -16728156.169 -19070335.380 10 0 60573 63900.00000 0 4029035.468 -18516865.720 -17082174.404 10 0 60573 64800.00000 0 5080215.173 -20182427.092 -14762409.630 10 0 60573 65700.00000 0 5847819.423 -21662187.222 -12156161.362 10 0 60573 66600.00000 0 6348531.928 -22897703.994 -9314076.485 10 0 60573 67500.00000 0 6610323.597 -23837171.447 -6291342.959 10 0 60573 68400.00000 0 6671010.021 -24437584.949 -3146618.480 10 0 60573 69300.00000 0 6576399.660 -24666556.196 59105.842 10 0 60573 70200.00000 0 6378111.910 -24503702.601 3263684.830 10 0 60573 71100.00000 0 6131157.788 -23941553.407 6405018.874 10 0 60573 72000.00000 0 5891385.668 -22985934.988 9422250.845 10 0 60573 72900.00000 0 5712899.926 -21655819.527 12256937.498 10 0 60573 73800.00000 0 5645561.195 -19982643.402 14854173.234 10 0 60573 74700.00000 0 5732673.383 -18009123.558 17163645.111 10 0 60573 75600.00000 0 6008954.663 -15787620.760 19140599.484 10 0 60573 76500.00000 0 6498877.724 -13378117.117 20746702.425 10 0 60573 77400.00000 0 7215449.282 -10845891.068 21950778.032 10 0 60573 78300.00000 0 8159480.632 -8258985.259 22729411.030 10 0 60573 79200.00000 0 9319380.806 -5685571.158 23067402.463 10 0 60573 80100.00000 0 10671482.350 -3191318.526 22958069.775 10 0 60573 81000.00000 0 12180887.770 -836877.691 22403385.270 10 0 60573 81900.00000 0 13802803.122 1324421.935 21413949.666 10 0 60573 82800.00000 0 15484304.896 3248562.223 20008800.307 10 0 60573 83700.00000 0 17166468.122 4902433.360 18215056.565 10 0 60573 84600.00000 0 18786768.144 6264971.316 16067407.880 10 0 60573 85500.00000 0 20281656.579 7327788.273 13607453.016 10 0 60574 0.00000 0 21589203.899 8095269.595 10882902.334 10 0 60574 900.00000 0 22651698.399 8584133.506 7946656.052 10 0 60574 1800.00000 0 23418090.044 8822471.063 4855779.546 10 0 60574 2700.00000 0 23846177.715 8848308.411 1670390.579 10 0 60574 3600.00000 0 23904444.603 8707751.382 -1547515.988 10 0 60574 4500.00000 0 23573463.662 8452792.120 -4735283.772 10 0 60574 5400.00000 0 22846812.249 8138871.552 -7830825.714 10 0 60574 6300.00000 0 21731456.114 7822302.290 -10773845.002 10 0 60574 7200.00000 0 20247585.557 7557662.653 -13507020.852 10 0 60574 8100.00000 0 18427910.000 7395273.744 -15977134.841 10 0 60574 9000.00000 0 16316440.420 7378867.890 -18136114.824 10 0 60574 9900.00000 0 13966810.835 7543548.390 -19941975.376 10 0 60574 10800.00000 0 11440209.584 7914127.809 -21359636.123 10 0 60574 11700.00000 0 8803007.427 8503915.675 -22361602.096 10 0 60574 12600.00000 0 6124182.050 9314007.102 -22928493.199 10 0 60574 13500.00000 0 3472646.737 10333102.348 -23049413.175 10 0 60574 14400.00000 0 914594.534 11537864.814 -22722151.673 10 0 60574 15300.00000 0 -1489031.813 12893802.132 -21953216.361 10 0 60574 16200.00000 0 -3684839.612 14356632.997 -20757695.336 10 0 60574 17100.00000 0 -5628961.143 15874082.085 -19158953.250 10 0 60574 18000.00000 0 -7288623.050 17388027.449 -17188167.730 10 0 60574 18900.00000 0 -8643246.687 18836910.202 -14883715.587 10 0 60574 19800.00000 0 -9685035.630 20158305.393 -12290421.082 10 0 60574 20700.00000 0 -10419027.986 21291546.354 -9458681.136 10 0 60574 21600.00000 0 -10862613.494 22180292.630 -6443484.593 10 0 60574 22500.00000 0 -11044537.721 22774934.122 -3303344.668 10 0 60574 23400.00000 0 -11003436.897 23034730.924 -99165.303 10 0 60574 24300.00000 0 -10785966.495 22929599.487 3106936.584 10 0 60574 25200.00000 0 -10444603.324 22441470.579 6252830.329 10 0 60574 26100.00000 0 -10035214.423 21565162.382 9277569.155 10 0 60574 27000.00000 0 -9614495.453 20308732.277 12122563.423 10 0 60574 27900.00000 0 -9237386.524 18693292.514 14732707.318 10 0 60574 28800.00000 0 -8954574.070 16752297.148 17057437.789 10 0 60574 29700.00000 0 -8810183.620 14530329.372 19051706.040 10 0 60574 30600.00000 0 -8839760.213 12081438.889 20676843.626 10 0 60574 31500.00000 0 -9068621.223 9467097.392 21901307.143 10 0 60574 32400.00000 0 -9510650.872 6753855.757 22701287.814 10 0 60574 33300.00000 0 -10167587.505 4010798.762 23061174.627 10 0 60574 34200.00000 0 -11028834.368 1306901.441 22973862.203 10 0 60574 35100.00000 0 -12071803.050 -1291604.661 22440897.250 10 0 60574 36000.00000 0 -13262776.715 -3723747.386 21472460.180 10 0 60574 36900.00000 0 -14558258.658 -5936108.525 20087181.337 10 0 60574 37800.00000 0 -15906751.361 -7884802.417 18311794.203 10 0 60574 38700.00000 0 -17250893.023 -9537056.704 16180630.915 10 0 60574 39600.00000 0 -18529863.109 -10872329.432 13734968.523 10 0 60574 40500.00000 0 -19681956.657 -11882915.826 11022237.389 10 0 60574 41400.00000 0 -20647219.347 -12574019.205 8095106.078 10 0 60574 42300.00000 0 -21370032.046 -12963282.965 5010459.938 10 0 60574 43200.00000 0 -21801535.117 -13079803.367 1828293.014 10 0 60574 44100.00000 0 -21901788.987 -12962665.053 -1389464.832 10 0 60574 45000.00000 0 -21641578.273 -12659061.690 -4580162.037 10 0 60574 45900.00000 0 -21003781.706 -12222082.114 -7681655.968 10 0 60574 46800.00000 0 -19984248.489 -11708256.829 -10633534.844 10 0 60574 47700.00000 0 -18592142.766 -11174970.104 -13378305.747 10 0 60574 48600.00000 0 -16849740.670 -10677848.692 -15862524.359 10 0 60574 49500.00000 0 -14791687.797 -10268239.115 -18037843.362 10 0 60574 50400.00000 0 -12463748.024 -9990881.483 -19861958.358 10 0 60574 51300.00000 0 -9921096.116 -9881879.118 -21299432.542 10 0 60574 52200.00000 0 -7226225.806 -9967050.375 -22322384.133 10 0 60574 53100.00000 0 -4446561.064 -10260732.465 -22911023.514 10 0 60574 54000.00000 0 -1651870.449 -10765087.627 -23054030.282 10 0 60574 54900.00000 0 1088407.673 -11469940.547 -22748763.681 10 0 60574 55800.00000 0 3707817.890 -12353153.335 -22001303.162 10 0 60574 56700.00000 0 6145408.673 -13381521.678 -20826319.166 10 0 60574 57600.00000 0 8348017.582 -14512153.868 -19246777.395 10 0 60574 58500.00000 0 10272226.905 -15694274.201 -17293482.960 10 0 60574 59400.00000 0 11885909.962 -16871374.536 -15004473.784 10 0 60574 60300.00000 0 13169305.517 -17983623.300 -12424275.386 10 0 60574 61200.00000 0 14115577.489 -18970430.590 -9603031.810 10 0 60574 62100.00000 0 14730838.686 -19773061.573 -6595529.710 10 0 60574 63000.00000 0 15033639.624 -20337188.497 -3460134.616 10 0 60574 63900.00000 0 15053945.732 -20615274.272 -257660.073 10 0 60574 64800.00000 0 14831647.491 -20568687.720 2949808.474 10 0 60574 65700.00000 0 14414667.380 -20169461.910 6100112.391 10 0 60574 66600.00000 0 13856744.146 -19401621.917 9132218.139 10 0 60574 67500.00000 0 13214988.119 -18262026.364 11987392.298 10 0 60574 68400.00000 0 12547310.579 -16760687.293 14610331.125 10 0 60574 69300.00000 0 11909835.184 -14920554.592 16950223.379 10 0 60574 70200.00000 0 11354399.961 -12776773.238 18961726.644 10 0 60574 71100.00000 0 10926254.412 -10375443.363 20605839.088 10 0 60574 72000.00000 0 10662048.047 -7771933.476 21850650.545 10 0 60574 72900.00000 0 10588194.553 -5028815.535 22671959.089 10 0 60574 73800.00000 0 10719680.211 -2213505.916 23053741.648 10 0 60574 74700.00000 0 11059366.895 604291.433 22988469.685 10 0 60574 75600.00000 0 11597819.582 3355235.287 22477263.673 10 0 60574 76500.00000 0 12313666.646 5972982.428 21529882.834 10 0 60574 77400.00000 0 13174479.126 8396699.735 20164549.398 10 0 60574 78300.00000 0 14138133.510 10573349.684 18407609.653 10 0 60574 79200.00000 0 15154602.236 12459654.739 16293036.960 10 0 60574 80100.00000 0 16168097.863 14023659.011 13861785.019 10 0 60574 81000.00000 0 17119481.602 15245821.999 11161002.659 10 0 60574 81900.00000 0 17948835.187 16119598.461 8243124.356 10 0 60574 82800.00000 0 18598087.548 16651479.851 5164853.560 10 0 60574 83700.00000 0 19013584.807 16860495.506 1986058.380 10 0 60574 84600.00000 0 19148493.959 16777194.591 -1231398.639 10 0 60574 85500.00000 0 18964937.237 16442152.124 -4424873.116 10 0 60575 0.00000 0 18435765.348 15904062.884 -7532168.909 10 0 60575 900.00000 0 17545892.624 15217504.405 -10492762.086 10 0 60575 1800.00000 0 16293136.901 14440465.671 -13248989.453 10 0 60575 2700.00000 0 14688526.390 13631746.386 -15747182.774 10 0 60575 3600.00000 0 12756060.202 12848338.867 -17938721.391 10 0 60575 4500.00000 0 10531931.670 12142904.169 -19780983.625 10 0 60575 5400.00000 0 8063246.743 11561450.062 -21238177.832 10 0 60575 6300.00000 0 5406291.014 11141309.484 -22282036.926 10 0 60575 7200.00000 0 2624417.947 10909504.943 -22892363.177 10 0 60575 8100.00000 0 -214353.456 10881567.638 -23057413.330 10 0 60575 9000.00000 0 -3039931.360 11060860.494 -22774117.322 10 0 60575 9900.00000 0 -5782826.342 11438432.869 -22048127.228 10 0 60575 10800.00000 0 -8376798.264 11993412.089 -20893696.337 10 0 60575 11700.00000 0 -10761365.404 12693914.383 -19333391.498 10 0 60575 12600.00000 0 -12884072.473 13498435.974 -17397644.973 10 0 60575 13500.00000 0 -14702424.494 14357664.992 -15124155.040 10 0 60575 14400.00000 0 -16185407.607 15216637.361 -12557147.309 10 0 60575 15300.00000 0 -17314535.170 16017145.474 -9746511.413 10 0 60575 16200.00000 0 -18084377.420 16700298.048 -6746829.965 10 0 60575 17100.00000 0 -18502554.473 17209123.314 -3616318.686 10 0 60575 18000.00000 0 -18589194.792 17491106.021 -415698.343 10 0 60575 18900.00000 0 -18375883.470 17500551.590 2792979.685 10 0 60575 19800.00000 0 -17904145.844 17200678.144 5947531.594 10 0 60575 20700.00000 0 -17223531.155 16565348.533 8986840.053 10 0 60575 21600.00000 0 -16389377.437 15580369.606 11852030.970 10 0 60575 22500.00000 0 -15460351.828 14244304.014 14487605.856 10 0 60575 23400.00000 0 -14495869.624 12568760.090 16842508.483 10 0 60575 24300.00000 0 -13553500.128 10578146.944 18871105.950 10 0 60575 25200.00000 0 -12686467.673 8308903.937 20534066.025 10 0 60575 26100.00000 0 -11941352.089 5808235.339 21799114.528 10 0 60575 27000.00000 0 -11356084.502 3132401.196 22641658.831 10 0 60575 27900.00000 0 -10958322.071 344633.691 23045265.855 10 0 60575 28800.00000 0 -10764269.669 -2487236.357 23001985.519 10 0 60575 29700.00000 0 -10777998.067 -5293346.187 22512513.191 10 0 60575 30600.00000 0 -10991287.730 -8004456.206 21586187.484 10 0 60575 31500.00000 0 -11384005.597 -10554584.711 20240822.548 10 0 60575 32400.00000 0 -11925000.081 -12883513.904 18502376.938 10 0 60575 33300.00000 0 -12573477.823 -14939063.722 16404464.144 10 0 60575 34200.00000 0 -13280805.356 -16679039.081 13987712.896 10 0 60575 35100.00000 0 -13992660.703 -18072769.292 11298988.394 10 0 60575 36000.00000 0 -14651444.683 -19102175.064 8390488.525 10 0 60575 36900.00000 0 -15198850.220 -19762318.001 5318732.018 10 0 60575 37800.00000 0 -15578480.662 -20061409.179 2143457.951 10 0 60575 38700.00000 0 -15738405.470 -20020276.246 -1073541.729 10 0 60575 39600.00000 0 -15633543.849 -19671311.531 -4269633.250 10 0 60575 40500.00000 0 -15227773.853 -19056945.921 -7382571.017 10 0 60575 41400.00000 0 -14495675.984 -18227713.627 -10351721.384 10 0 60575 42300.00000 0 -13423835.862 -17239990.583 -13119254.975 10 0 60575 43200.00000 0 -12011649.353 -16153503.250 -15631283.069 10 0 60575 44100.00000 0 -10271594.862 -15028714.276 -17838914.896 10 0 60575 45000.00000 0 -8228960.327 -13924196.622 -19699214.432 10 0 60575 45900.00000 0 -5921035.685 -12894107.924 -21176037.717 10 0 60575 46800.00000 0 -3395804.271 -11985872.198 -22240734.392 10 0 60575 47700.00000 0 -710187.775 -11238166.831 -22872700.105 10 0 60575 48600.00000 0 2072081.985 -10679299.393 -23059769.664 10 0 60575 49500.00000 0 4882875.701 -10326041.953 -22798444.067 10 0 60575 50400.00000 0 7652263.215 -10182971.012 -22093947.860 10 0 60575 51300.00000 0 10311186.323 -10242339.586 -20960116.560 10 0 60575 52200.00000 0 12794097.071 -10484485.544 -19419117.110 10 0 60575 53100.00000 0 15041452.513 -10878757.680 -17501007.467 10 0 60575 54000.00000 0 17001963.138 -11384919.352 -15243144.389 10 0 60575 54900.00000 0 18634502.690 -11954969.544 -12689451.315 10 0 60575 55800.00000 0 19909601.199 -12535303.850 -9889560.804 10 0 60575 56700.00000 0 20810460.649 -13069123.728 -6897848.385 10 0 60575 57600.00000 0 21333452.542 -13498992.184 -3772376.622 10 0 60575 58500.00000 0 21488078.235 -13769427.970 -573769.931 10 0 60575 59400.00000 0 21296395.330 -13829428.978 2635958.064 10 0 60575 60300.00000 0 20791935.487 -13634818.588 5794602.052 10 0 60575 61200.00000 0 20018160.176 -13150316.232 8840964.424 10 0 60575 62100.00000 0 19026519.898 -12351245.082 11716033.659 10 0 60575 63000.00000 0 17874198.699 -11224804.918 14364119.423 10 0 60575 63900.00000 0 16621638.655 -9770856.385 16733922.973 10 0 60575 64800.00000 0 15329947.859 -8002183.078 18779522.953 10 0 60575 65700.00000 0 14058300.014 -5944219.476 20461258.299 10 0 60575 66600.00000 0 12861433.899 -3634254.748 21746491.941 10 0 60575 67500.00000 0 11787356.667 -1120143.983 22610241.219 10 0 60575 68400.00000 0 10875346.426 1541421.419 23035663.301 10 0 60575 69300.00000 0 10154337.201 4287014.241 23014386.407 10 0 60575 70200.00000 0 9641753.618 7048857.613 22546680.265 10 0 60575 71100.00000 0 9342844.128 9757399.666 21641461.998 10 0 60575 72000.00000 0 9250541.080 12343971.357 20316136.476 10 0 60575 72900.00000 0 9345854.091 14743418.371 18596273.052 10 0 60575 73800.00000 0 9598780.970 16896598.512 16515123.638 10 0 60575 74700.00000 0 9969698.715 18752640.999 14112990.084 10 0 60575 75600.00000 0 10411176.714 20270873.478 11436451.876 10 0 60575 76500.00000 0 10870136.171 21422335.911 8537468.073 10 0 60575 77400.00000 0 11290264.715 22190817.440 5472370.308 10 0 60575 78300.00000 0 11614583.779 22573372.187 2300766.164 10 0 60575 79200.00000 0 11788059.372 22580291.783 -915625.528 10 0 60575 80100.00000 0 11760144.544 22234535.527 -4114184.112 10 0 60575 81000.00000 0 11487144.325 21570642.210 -7232616.708 10 0 60575 81900.00000 0 10934301.328 20633169.865 -10210182.824 10 0 60575 82800.00000 0 10077511.931 19474729.961 -12988888.748 10 0 60575 83700.00000 0 8904598.799 18153700.015 -15514627.218 10 0 60575 84600.00000 0 7416084.446 16731712.175 -17738239.108 10 0 60575 85500.00000 0 5625432.006 15271024.859 -19616475.635 99